Satellite: NANOSATCBR1 Catalog number: 40024 Epoch time: 14191.66264126 Element set: 52 Inclination: 097.9807 deg RA of node: 086.3365 deg Eccentricity: 0.0012535 Arg of perigee: 217.5892 deg Mean anomaly: 142.4465 deg Mean motion: 14.85259467 rev/day Decay rate: 2.488e-05 rev/day^2 Epoch rev: 306 Checksum: 304
Satellite: DTUSAT-2 Catalog number: 40030 Epoch time: 14191.66795387 Element set: 54 Inclination: 097.9802 deg RA of node: 086.3272 deg Eccentricity: 0.0011612 Arg of perigee: 209.3408 deg Mean anomaly: 150.7194 deg Mean motion: 14.84874082 rev/day Decay rate: 1.969e-05 rev/day^2 Epoch rev: 307 Checksum: 302
Satellite: ANTELSAT Catalog number: 40034 Epoch time: 14191.65719889 Element set: 48 Inclination: 097.9776 deg RA of node: 085.8721 deg Eccentricity: 0.0062117 Arg of perigee: 131.1788 deg Mean anomaly: 229.4817 deg Mean motion: 14.71209095 rev/day Decay rate: 1.702e-05 rev/day^2 Epoch rev: 305 Checksum: 311
/EX SB KEPS @ AMSAT $ORB14191.W Orbital Elements 14191.WEATHER
HR AMSAT ORBITAL ELEMENTS FOR WEATHER SATELLITES FROM WA5QGD FORT WORTH,TX July 10, 2014 BID: ORB14191.W TO ALL RADIO AMATEURS BT
Satellite: MET-2/21 Catalog number: 22782 Epoch time: 14191.85792259 Element set: 105 Inclination: 082.5504 deg RA of node: 154.5244 deg Eccentricity: 0.0022114 Arg of perigee: 194.9915 deg Mean anomaly: 224.5819 deg Mean motion: 13.83739410 rev/day Decay rate: 6.8e-07 rev/day^2 Epoch rev: 5339 Checksum: 307
Satellite: OKEAN-4 Catalog number: 23317 Epoch time: 14191.85986470 Element set: 584 Inclination: 082.5370 deg RA of node: 045.7386 deg Eccentricity: 0.0020888 Arg of perigee: 025.1836 deg Mean anomaly: 046.5039 deg Mean motion: 14.85580272 rev/day Decay rate: 8.54e-06 rev/day^2 Epoch rev: 6662 Checksum: 325
Satellite: NOAA-14 Catalog number: 23455 Epoch time: 14191.50664832 Element set: 817 Inclination: 098.7780 deg RA of node: 274.5291 deg Eccentricity: 0.0008754 Arg of perigee: 339.0419 deg Mean anomaly: 141.9761 deg Mean motion: 14.13978148 rev/day Decay rate: 8.1e-07 rev/day^2 Epoch rev: 724 Checksum: 320
Satellite: NOAA-15 Catalog number: 25338 Epoch time: 14191.50867152 Element set: 254 Inclination: 098.7532 deg RA of node: 185.3228 deg Eccentricity: 0.0011798 Arg of perigee: 083.3689 deg Mean anomaly: 077.0955 deg Mean motion: 14.25442657 rev/day Decay rate: 1.71e-06 rev/day^2 Epoch rev: 84016 Checksum: 325
Satellite: RESURS Catalog number: 25394 Epoch time: 14191.48420235 Element set: 700 Inclination: 098.4144 deg RA of node: 154.8766 deg Eccentricity: 0.0001835 Arg of perigee: 151.0441 deg Mean anomaly: 317.0162 deg Mean motion: 14.24396193 rev/day Decay rate: 4.0e-08 rev/day^2 Epoch rev: 83163 Checksum: 272
Satellite: FENGYUN1 Catalog number: 25730 Epoch time: 14190.93753115 Element set: 188 Inclination: 098.9137 deg RA of node: 151.8899 deg Eccentricity: 0.0026464 Arg of perigee: 048.7618 deg Mean anomaly: 357.7711 deg Mean motion: 14.11955244 rev/day Decay rate: 1.296e-05 rev/day^2 Epoch rev: 78073 Checksum: 336
Satellite: OKEAN-0 Catalog number: 25860 Epoch time: 14191.51503310 Element set: 298 Inclination: 098.0442 deg RA of node: 155.2435 deg Eccentricity: 0.0001272 Arg of perigee: 082.9438 deg Mean anomaly: 030.2078 deg Mean motion: 14.75310669 rev/day Decay rate: 6.12e-06 rev/day^2 Epoch rev: 80559 Checksum: 280
Satellite: NOAA-16 Catalog number: 26536 Epoch time: 14191.44837773 Element set: 751 Inclination: 098.9892 deg RA of node: 251.9122 deg Eccentricity: 0.0011627 Arg of perigee: 117.7723 deg Mean anomaly: 242.4629 deg Mean motion: 14.13029297 rev/day Decay rate: 1.2e-07 rev/day^2 Epoch rev: 71140 Checksum: 307
Satellite: NOAA-17 Catalog number: 27453 Epoch time: 14191.43854732 Element set: 648 Inclination: 098.3145 deg RA of node: 189.9276 deg Eccentricity: 0.0012995 Arg of perigee: 105.9622 deg Mean anomaly: 254.2991 deg Mean motion: 14.24756609 rev/day Decay rate: 5.5e-07 rev/day^2 Epoch rev: 62599 Checksum: 350
Satellite: NOAA-18 Catalog number: 28654 Epoch time: 14191.49372375 Element set: 151 Inclination: 099.1494 deg RA of node: 171.4629 deg Eccentricity: 0.0014199 Arg of perigee: 194.4379 deg Mean anomaly: 272.6155 deg Mean motion: 14.12037144 rev/day Decay rate: 1.94e-06 rev/day^2 Epoch rev: 47085 Checksum: 327
Satellite: NOAA-19 Catalog number: 33591 Epoch time: 14191.46227855 Element set: 300 Inclination: 098.9454 deg RA of node: 136.4311 deg Eccentricity: 0.0014954 Arg of perigee: 057.1886 deg Mean anomaly: 076.3426 deg Mean motion: 14.11735496 rev/day Decay rate: 1.18e-06 rev/day^2 Epoch rev: 27927 Checksum: 321
/EX SB KEPS @ AMSAT $ORB14191.M Orbital Elements 14191.MISC
HR AMSAT ORBITAL ELEMENTS FOR MANNED AND MISCELLANEOUS SATELLITES FROM WA5QGD FORT WORTH,TX July 10, 2014 BID: ORB14191.M TO ALL RADIO AMATEURS BT
Satellite: HUBBLE Catalog number: 20580 Epoch time: 14191.47005300 Element set: 52 Inclination: 028.4690 deg RA of node: 244.0741 deg Eccentricity: 0.0003036 Arg of perigee: 167.2450 deg Mean anomaly: 324.8290 deg Mean motion: 15.05527249 rev/day Decay rate: 2.294e-05 rev/day^2 Epoch rev: 12823 Checksum: 254
Satellite: ISS Catalog number: 25544 Epoch time: 14191.89829819 Element set: 674 Inclination: 051.6486 deg RA of node: 342.0263 deg Eccentricity: 0.0003270 Arg of perigee: 234.6440 deg Mean anomaly: 274.4871 deg Mean motion: 15.50546565 rev/day Decay rate: 1.2400e-04 rev/day^2 Epoch rev: 89500 Checksum: 303
Satellite: CO-58 Catalog number: 28895 Epoch time: 14191.48140064 Element set: 815 Inclination: 097.8337 deg RA of node: 032.1387 deg Eccentricity: 0.0015996 Arg of perigee: 298.8622 deg Mean anomaly: 061.0975 deg Mean motion: 14.61930908 rev/day Decay rate: 7.08e-06 rev/day^2 Epoch rev: 46365 Checksum: 348
Satellite: FALCON Catalog number: 30776 Epoch time: 14190.76959725 Element set: 907 Inclination: 035.4304 deg RA of node: 333.9130 deg Eccentricity: 0.0001171 Arg of perigee: 156.6074 deg Mean anomaly: 340.0281 deg Mean motion: 15.16560628 rev/day Decay rate: 9.497e-05 rev/day^2 Epoch rev: 40416 Checksum: 294
Satellite: MAST Catalog number: 31126 Epoch time: 14190.96226851 Element set: 89 Inclination: 097.9155 deg RA of node: 170.6703 deg Eccentricity: 0.0090620 Arg of perigee: 283.3670 deg Mean anomaly: 142.1593 deg Mean motion: 14.55315632 rev/day Decay rate: 5.45e-06 rev/day^2 Epoch rev: 38370 Checksum: 294
Satellite: CAPE1 Catalog number: 31130 Epoch time: 14191.46357044 Element set: 96 Inclination: 097.9364 deg RA of node: 167.8273 deg Eccentricity: 0.0097470 Arg of perigee: 300.1388 deg Mean anomaly: 059.0177 deg Mean motion: 14.54495161 rev/day Decay rate: 7.43e-06 rev/day^2 Epoch rev: 38319 Checksum: 311
Satellite: COMPASS Catalog number: 32787 Epoch time: 14191.77026207 Element set: 980 Inclination: 097.7007 deg RA of node: 244.6253 deg Eccentricity: 0.0015442 Arg of perigee: 103.0911 deg Mean anomaly: 257.2030 deg Mean motion: 14.88028590 rev/day Decay rate: 3.323e-05 rev/day^2 Epoch rev: 33569 Checksum: 287
Satellite: AAUSAT2 Catalog number: 32788 Epoch time: 14191.76313117 Element set: 966 Inclination: 097.7017 deg RA of node: 245.6343 deg Eccentricity: 0.0014996 Arg of perigee: 101.6650 deg Mean anomaly: 258.6251 deg Mean motion: 14.88746903 rev/day Decay rate: 4.578e-05 rev/day^2 Epoch rev: 33575 Checksum: 336
Satellite: DO-64 Catalog number: 32789 Epoch time: 14191.80042854 Element set: 6 Inclination: 097.7208 deg RA of node: 252.3998 deg Eccentricity: 0.0013792 Arg of perigee: 089.0997 deg Mean anomaly: 336.7889 deg Mean motion: 14.93636185 rev/day Decay rate: 8.243e-05 rev/day^2 Epoch rev: 33602 Checksum: 357
Satellite: CO-66 Catalog number: 32791 Epoch time: 14191.14232171 Element set: 962 Inclination: 097.6999 deg RA of node: 242.7332 deg Eccentricity: 0.0016095 Arg of perigee: 108.4922 deg Mean anomaly: 251.8045 deg Mean motion: 14.86660040 rev/day Decay rate: 3.618e-05 rev/day^2 Epoch rev: 33546 Checksum: 315
Satellite: RS-30 Catalog number: 32953 Epoch time: 14191.73279751 Element set: 86 Inclination: 082.4995 deg RA of node: 186.5692 deg Eccentricity: 0.0020364 Arg of perigee: 103.4752 deg Mean anomaly: 256.8597 deg Mean motion: 12.43048856 rev/day Decay rate: 1.0e-07 rev/day^2 Epoch rev: 27818 Checksum: 328
Satellite: METEOR-M Catalog number: 35865 Epoch time: 14191.72804185 Element set: 701 Inclination: 098.5480 deg RA of node: 238.4263 deg Eccentricity: 0.0003114 Arg of perigee: 042.4706 deg Mean anomaly: 317.6711 deg Mean motion: 14.21925233 rev/day Decay rate: -1.0e-08 rev/day^2 Epoch rev: 24968 Checksum: 281
Satellite: RS-38 Catalog number: 35869 Epoch time: 14191.71083983 Element set: 622 Inclination: 098.5412 deg RA of node: 238.1983 deg Eccentricity: 0.0005010 Arg of perigee: 040.9942 deg Mean anomaly: 072.2270 deg Mean motion: 14.22217078 rev/day Decay rate: 3.6e-07 rev/day^2 Epoch rev: 24971 Checksum: 301
Satellite: JUGNU Catalog number: 37839 Epoch time: 14191.21778124 Element set: 652 Inclination: 019.9620 deg RA of node: 115.3526 deg Eccentricity: 0.0018888 Arg of perigee: 237.9196 deg Mean anomaly: 248.5544 deg Mean motion: 14.12318678 rev/day Decay rate: 3.94e-06 rev/day^2 Epoch rev: 14181 Checksum: 324
Satellite: SRMSAT Catalog number: 37841 Epoch time: 14191.86561095 Element set: 656 Inclination: 019.9722 deg RA of node: 131.2224 deg Eccentricity: 0.0011851 Arg of perigee: 183.5448 deg Mean anomaly: 214.2947 deg Mean motion: 14.10359254 rev/day Decay rate: 3.71e-06 rev/day^2 Epoch rev: 14170 Checksum: 286
Satellite: RAX-2 Catalog number: 37853 Epoch time: 14191.72933153 Element set: 855 Inclination: 101.7125 deg RA of node: 232.6025 deg Eccentricity: 0.0215430 Arg of perigee: 348.7039 deg Mean anomaly: 121.4789 deg Mean motion: 14.89727041 rev/day Decay rate: 6.779e-05 rev/day^2 Epoch rev: 14616 Checksum: 312
